owner,sensor,date,latitude,longitude,vertical_datum,wind_speed,wind_to_direction,wind_speed_of_gust,qcFlag 
WAVCIS,ioos:station:WAVCIS:CSI09:1,2015-11-01T00:00:00Z,29.1015,-89.9782,0.0,3.535,179.0,,'11111222,11111222,99999999' 
WAVCIS,ioos:station:WAVCIS:CSI09:1,2015-11-01T01:00:00Z,29.1015,-89.9782,0.0,8.21,28.0,,'11111222,11111222,99999999' 
WAVCIS,ioos:station:WAVCIS:CSI09:1,2015-11-01T02:00:00Z,29.1015,-89.9782,0.0,12.58,24.0,,'11111222,11111222,99999999' 
WAVCIS,ioos:station:WAVCIS:CSI09:1,2015-11-01T03:00:00Z,29.1015,-89.9782,0.0,9.2,32.0,,'11111222,11111222,99999999' 
WAVCIS,ioos:station:WAVCIS:CSI09:1,2015-11-01T04:00:00Z,29.1015,-89.9782,0.0,9.31,27.0,,'11111222,11111222,99999999' 
WAVCIS,ioos:station:WAVCIS:CSI09:1,2015-11-01T05:00:00Z,29.1015,-89.9782,0.0,7.66,34.0,,'11111222,11111222,99999999' 
WAVCIS,ioos:station:WAVCIS:CSI09:1,2015-11-01T06:00:00Z,29.1015,-89.9782,0.0,6.253,48.0,,'11111222,11111222,99999999' 
WAVCIS,ioos:station:WAVCIS:CSI09:1,2015-11-01T07:00:00Z,29.1015,-89.9782,0.0,7.08,37.0,,'11111222,11111222,99999999' 
WAVCIS,ioos:station:WAVCIS:CSI09:1,2015-11-01T08:00:00Z,29.1015,-89.9782,0.0,8.0,8.0,,'11111222,11111222,99999999' 
WAVCIS,ioos:station:WAVCIS:CSI09:1,2015-11-01T09:00:00Z,29.1015,-89.9782,0.0,12.18,0.0,,'11111222,11111222,99999999' 
WAVCIS,ioos:station:WAVCIS:CSI09:1,2015-11-01T10:00:00Z,29.1015,-89.9782,0.0,14.96,14.0,,'11111222,11111222,99999999' 
WAVCIS,ioos:station:WAVCIS:CSI09:1,2015-11-01T11:00:00Z,29.1015,-89.9782,0.0,15.63,19.0,,'11111222,11111222,99999999' 
WAVCIS,ioos:station:WAVCIS:CSI09:1,2015-11-01T12:00:00Z,29.1015,-89.9782,0.0,15.06,27.0,,'11111222,11111222,99999999' 
WAVCIS,ioos:station:WAVCIS:CSI09:1,2015-11-01T13:00:00Z,29.1015,-89.9782,0.0,13.98,38.0,,'11111222,11111222,99999999' 
WAVCIS,ioos:station:WAVCIS:CSI09:1,2015-11-01T14:00:00Z,29.1015,-89.9782,0.0,14.91,27.0,,'11111222,11111222,99999999' 
WAVCIS,ioos:station:WAVCIS:CSI09:1,2015-11-01T15:00:00Z,29.1015,-89.9782,0.0,13.87,37.0,,'11111222,11111222,99999999' 
WAVCIS,ioos:station:WAVCIS:CSI09:1,2015-11-01T16:00:00Z,29.1015,-89.9782,0.0,13.83,47.0,,'11111222,11111222,99999999' 
WAVCIS,ioos:station:WAVCIS:CSI09:1,2015-11-01T17:00:00Z,29.1015,-89.9782,0.0,13.81,49.0,,'11111222,11111222,99999999' 
WAVCIS,ioos:station:WAVCIS:CSI09:1,2015-11-01T18:00:00Z,29.1015,-89.9782,0.0,12.23,50.0,,'11111222,11111222,99999999' 
WAVCIS,ioos:station:WAVCIS:CSI09:1,2015-11-01T19:00:00Z,29.1015,-89.9782,0.0,11.84,56.0,,'11111222,11111222,99999999' 
WAVCIS,ioos:station:WAVCIS:CSI09:1,2015-11-01T20:00:00Z,29.1015,-89.9782,0.0,11.75,56.0,,'11111222,11111222,99999999' 
WAVCIS,ioos:station:WAVCIS:CSI09:1,2015-11-01T21:00:00Z,29.1015,-89.9782,0.0,12.17,56.0,,'11111222,11111222,99999999' 
WAVCIS,ioos:station:WAVCIS:CSI09:1,2015-11-01T22:00:00Z,29.1015,-89.9782,0.0,11.24,63.0,,'11111222,11111222,99999999' 
WAVCIS,ioos:station:WAVCIS:CSI09:1,2015-11-01T23:00:00Z,29.1015,-89.9782,0.0,8.63,78.0,,'11111222,11111222,99999999' 
WAVCIS,ioos:station:WAVCIS:CSI09:1,2015-11-02T00:00:00Z,29.1015,-89.9782,0.0,7.62,80.0,,'11111222,11111222,99999999' 
WAVCIS,ioos:station:WAVCIS:CSI09:1,2015-11-02T01:00:00Z,29.1015,-89.9782,0.0,4.997,80.0,,'11111222,11111222,99999999' 
WAVCIS,ioos:station:WAVCIS:CSI09:1,2015-11-02T02:00:00Z,29.1015,-89.9782,0.0,3.429,67.0,,'11111222,11111222,99999999' 
WAVCIS,ioos:station:WAVCIS:CSI09:1,2015-11-02T03:00:00Z,29.1015,-89.9782,0.0,2.211,80.0,,'11111222,11111222,99999999' 
WAVCIS,ioos:station:WAVCIS:CSI09:1,2015-11-02T04:00:00Z,29.1015,-89.9782,0.0,1.834,134.0,,'11111222,11111222,99999999' 
WAVCIS,ioos:station:WAVCIS:CSI09:1,2015-11-02T05:00:00Z,29.1015,-89.9782,0.0,1.735,129.0,,'11111222,11111222,99999999' 
WAVCIS,ioos:station:WAVCIS:CSI09:1,2015-11-02T06:00:00Z,29.1015,-89.9782,0.0,1.227,145.0,,'11111222,11111222,99999999' 
WAVCIS,ioos:station:WAVCIS:CSI09:1,2015-11-02T07:00:00Z,29.1015,-89.9782,0.0,2.281,247.0,,'11111222,11111222,99999999' 
WAVCIS,ioos:station:WAVCIS:CSI09:1,2015-11-02T08:00:00Z,29.1015,-89.9782,0.0,1.6,3.0,,'11111222,11111222,99999999' 
WAVCIS,ioos:station:WAVCIS:CSI09:1,2015-11-02T09:00:00Z,29.1015,-89.9782,0.0,2.097,237.0,,'11111222,11111222,99999999' 
WAVCIS,ioos:station:WAVCIS:CSI09:1,2015-11-02T10:00:00Z,29.1015,-89.9782,0.0,5.01,273.0,,'11111222,11111222,99999999' 
WAVCIS,ioos:station:WAVCIS:CSI09:1,2015-11-02T11:00:00Z,29.1015,-89.9782,0.0,3.9,301.0,,'11111222,11111222,99999999' 
WAVCIS,ioos:station:WAVCIS:CSI09:1,2015-11-02T12:00:00Z,29.1015,-89.9782,0.0,5.059,289.0,,'11111222,11111222,99999999' 
WAVCIS,ioos:station:WAVCIS:CSI09:1,2015-11-02T13:00:00Z,29.1015,-89.9782,0.0,4.399,286.0,,'11111222,11111222,99999999' 
WAVCIS,ioos:station:WAVCIS:CSI09:1,2015-11-02T14:00:00Z,29.1015,-89.9782,0.0,7.13,270.0,,'11111222,11111222,99999999' 
WAVCIS,ioos:station:WAVCIS:CSI09:1,2015-11-02T15:00:00Z,29.1015,-89.9782,0.0,6.196,281.0,,'11111222,11111222,99999999' 
WAVCIS,ioos:station:WAVCIS:CSI09:1,2015-11-02T16:00:00Z,29.1015,-89.9782,0.0,6.045,291.0,,'11111222,11111222,99999999' 
WAVCIS,ioos:station:WAVCIS:CSI09:1,2015-11-02T17:00:00Z,29.1015,-89.9782,0.0,6.697,279.0,,'11111222,11111222,99999999' 
WAVCIS,ioos:station:WAVCIS:CSI09:1,2015-11-02T18:00:00Z,29.1015,-89.9782,0.0,6.672,273.0,,'11111222,11111222,99999999' 
WAVCIS,ioos:station:WAVCIS:CSI09:1,2015-11-02T19:00:00Z,29.1015,-89.9782,0.0,6.666,275.0,,'11111222,11111222,99999999' 
WAVCIS,ioos:station:WAVCIS:CSI09:1,2015-11-02T20:00:00Z,29.1015,-89.9782,0.0,6.274,266.0,,'11111222,11111222,99999999' 
WAVCIS,ioos:station:WAVCIS:CSI09:1,2015-11-02T21:00:00Z,29.1015,-89.9782,0.0,5.926,266.0,,'11111222,11111222,99999999' 
WAVCIS,ioos:station:WAVCIS:CSI09:1,2015-11-02T22:00:00Z,29.1015,-89.9782,0.0,6.318,268.0,,'11111222,11111222,99999999' 
WAVCIS,ioos:station:WAVCIS:CSI09:1,2015-11-02T23:00:00Z,29.1015,-89.9782,0.0,5.639,265.0,,'11111222,11111222,99999999' 
WAVCIS,ioos:station:WAVCIS:CSI09:1,2015-11-03T00:00:00Z,29.1015,-89.9782,0.0,5.776,286.0,,'11111222,11111222,99999999' 
WAVCIS,ioos:station:WAVCIS:CSI09:1,2015-11-03T01:00:00Z,29.1015,-89.9782,0.0,4.865,288.0,,'11111222,11111222,99999999' 
WAVCIS,ioos:station:WAVCIS:CSI09:1,2015-11-03T02:00:00Z,29.1015,-89.9782,0.0,3.14,282.0,,'11111222,11111222,99999999' 
WAVCIS,ioos:station:WAVCIS:CSI09:1,2015-11-03T03:00:00Z,29.1015,-89.9782,0.0,2.706,267.0,,'11111222,11111222,99999999' 
WAVCIS,ioos:station:WAVCIS:CSI09:1,2015-11-03T04:00:00Z,29.1015,-89.9782,0.0,3.246,29.0,,'11111222,11111222,99999999' 
WAVCIS,ioos:station:WAVCIS:CSI09:1,2015-11-03T05:00:00Z,29.1015,-89.9782,0.0,3.076,32.0,,'11111222,11111222,99999999' 
WAVCIS,ioos:station:WAVCIS:CSI09:1,2015-11-03T06:00:00Z,29.1015,-89.9782,0.0,2.678,11.0,,'11111222,11111222,99999999' 
WAVCIS,ioos:station:WAVCIS:CSI09:1,2015-11-03T07:00:00Z,29.1015,-89.9782,0.0,3.094,347.0,,'11111222,11111222,99999999' 
WAVCIS,ioos:station:WAVCIS:CSI09:1,2015-11-03T08:00:00Z,29.1015,-89.9782,0.0,3.542,341.0,,'11111222,11111222,99999999' 
WAVCIS,ioos:station:WAVCIS:CSI09:1,2015-11-03T09:00:00Z,29.1015,-89.9782,0.0,4.453,347.0,,'11111222,11111222,99999999' 
WAVCIS,ioos:station:WAVCIS:CSI09:1,2015-11-03T10:00:00Z,29.1015,-89.9782,0.0,4.348,5.0,,'11111222,11111222,99999999' 
WAVCIS,ioos:station:WAVCIS:CSI09:1,2015-11-03T11:00:00Z,29.1015,-89.9782,0.0,2.785,359.0,,'11111222,11111222,99999999' 
WAVCIS,ioos:station:WAVCIS:CSI09:1,2015-11-03T12:00:00Z,29.1015,-89.9782,0.0,4.061,11.0,,'11111222,11111222,99999999' 
WAVCIS,ioos:station:WAVCIS:CSI09:1,2015-11-03T13:00:00Z,29.1015,-89.9782,0.0,4.417,38.0,,'11111222,11111222,99999999' 
WAVCIS,ioos:station:WAVCIS:CSI09:1,2015-11-03T14:00:00Z,29.1015,-89.9782,0.0,4.514,43.0,,'11111222,11111222,99999999' 
WAVCIS,ioos:station:WAVCIS:CSI09:1,2015-11-03T15:00:00Z,29.1015,-89.9782,0.0,4.782,46.0,,'11111222,11111222,99999999' 
WAVCIS,ioos:station:WAVCIS:CSI09:1,2015-11-03T16:00:00Z,29.1015,-89.9782,0.0,4.862,37.0,,'11111222,11111222,99999999' 
WAVCIS,ioos:station:WAVCIS:CSI09:1,2015-11-03T17:00:00Z,29.1015,-89.9782,0.0,3.316,46.0,,'11111222,11111222,99999999' 
WAVCIS,ioos:station:WAVCIS:CSI09:1,2015-11-03T18:00:00Z,29.1015,-89.9782,0.0,3.005,32.0,,'11111222,11111222,99999999' 
WAVCIS,ioos:station:WAVCIS:CSI09:1,2015-11-03T19:00:00Z,29.1015,-89.9782,0.0,2.521,31.0,,'11111222,11111222,99999999' 
WAVCIS,ioos:station:WAVCIS:CSI09:1,2015-11-03T20:00:00Z,29.1015,-89.9782,0.0,2.106,44.0,,'11111222,11111222,99999999' 
WAVCIS,ioos:station:WAVCIS:CSI09:1,2015-11-03T21:00:00Z,29.1015,-89.9782,0.0,1.966,52.0,,'11111222,11111222,99999999' 
WAVCIS,ioos:station:WAVCIS:CSI09:1,2015-11-03T22:00:00Z,29.1015,-89.9782,0.0,1.865,92.0,,'11111222,11111222,99999999' 
WAVCIS,ioos:station:WAVCIS:CSI09:1,2015-11-03T23:00:00Z,29.1015,-89.9782,0.0,2.166,91.0,,'11111222,11111222,99999999' 
WAVCIS,ioos:station:WAVCIS:CSI09:1,2015-11-04T00:00:00Z,29.1015,-89.9782,0.0,2.149,81.0,,'11111222,11111222,99999999' 
WAVCIS,ioos:station:WAVCIS:CSI09:1,2015-11-04T01:00:00Z,29.1015,-89.9782,0.0,2.931,77.0,,'11111222,11111222,99999999' 
WAVCIS,ioos:station:WAVCIS:CSI09:1,2015-11-04T02:00:00Z,29.1015,-89.9782,0.0,4.178,84.0,,'11111222,11111222,99999999' 
WAVCIS,ioos:station:WAVCIS:CSI09:1,2015-11-04T03:00:00Z,29.1015,-89.9782,0.0,5.579,86.0,,'11111222,11111222,99999999' 
WAVCIS,ioos:station:WAVCIS:CSI09:1,2015-11-04T04:00:00Z,29.1015,-89.9782,0.0,5.962,84.0,,'11111222,11111222,99999999' 
WAVCIS,ioos:station:WAVCIS:CSI09:1,2015-11-04T05:00:00Z,29.1015,-89.9782,0.0,5.799,84.0,,'11111222,11111222,99999999' 
WAVCIS,ioos:station:WAVCIS:CSI09:1,2015-11-04T06:00:00Z,29.1015,-89.9782,0.0,5.153,84.0,,'11111222,11111222,99999999' 
WAVCIS,ioos:station:WAVCIS:CSI09:1,2015-11-04T07:00:00Z,29.1015,-89.9782,0.0,5.004,80.0,,'11111222,11111222,99999999' 
WAVCIS,ioos:station:WAVCIS:CSI09:1,2015-11-04T08:00:00Z,29.1015,-89.9782,0.0,4.575,86.0,,'11111222,11111222,99999999' 
WAVCIS,ioos:station:WAVCIS:CSI09:1,2015-11-04T09:00:00Z,29.1015,-89.9782,0.0,4.316,82.0,,'11111222,11111222,99999999' 
WAVCIS,ioos:station:WAVCIS:CSI09:1,2015-11-04T10:00:00Z,29.1015,-89.9782,0.0,4.29,86.0,,'11111222,11111222,99999999' 
WAVCIS,ioos:station:WAVCIS:CSI09:1,2015-11-04T11:00:00Z,29.1015,-89.9782,0.0,4.272,79.0,,'11111222,11111222,99999999' 
WAVCIS,ioos:station:WAVCIS:CSI09:1,2015-11-04T12:00:00Z,29.1015,-89.9782,0.0,4.59,79.0,,'11111222,11111222,99999999' 
WAVCIS,ioos:station:WAVCIS:CSI09:1,2015-11-04T13:00:00Z,29.1015,-89.9782,0.0,4.171,73.0,,'11111222,11111222,99999999' 
WAVCIS,ioos:station:WAVCIS:CSI09:1,2015-11-04T14:00:00Z,29.1015,-89.9782,0.0,4.742,62.0,,'11111222,11111222,99999999' 
WAVCIS,ioos:station:WAVCIS:CSI09:1,2015-11-04T15:00:00Z,29.1015,-89.9782,0.0,5.223,67.0,,'11111222,11111222,99999999' 
WAVCIS,ioos:station:WAVCIS:CSI09:1,2015-11-04T16:00:00Z,29.1015,-89.9782,0.0,5.364,69.0,,'11111222,11111222,99999999' 
WAVCIS,ioos:station:WAVCIS:CSI09:1,2015-11-04T17:00:00Z,29.1015,-89.9782,0.0,5.534,71.0,,'11111222,11111222,99999999' 
WAVCIS,ioos:station:WAVCIS:CSI09:1,2015-11-04T18:00:00Z,29.1015,-89.9782,0.0,4.523,63.0,,'11111222,11111222,99999999' 
WAVCIS,ioos:station:WAVCIS:CSI09:1,2015-11-04T19:00:00Z,29.1015,-89.9782,0.0,3.965,64.0,,'11111222,11111222,99999999' 
WAVCIS,ioos:station:WAVCIS:CSI09:1,2015-11-04T20:00:00Z,29.1015,-89.9782,0.0,4.47,74.0,,'11111222,11111222,99999999' 
WAVCIS,ioos:station:WAVCIS:CSI09:1,2015-11-04T21:00:00Z,29.1015,-89.9782,0.0,4.71,65.0,,'11111222,11111222,99999999' 
WAVCIS,ioos:station:WAVCIS:CSI09:1,2015-11-04T22:00:00Z,29.1015,-89.9782,0.0,4.809,65.0,,'11111222,11111222,99999999' 
WAVCIS,ioos:station:WAVCIS:CSI09:1,2015-11-04T23:00:00Z,29.1015,-89.9782,0.0,6.056,64.0,,'11111222,11111222,99999999' 
WAVCIS,ioos:station:WAVCIS:CSI09:1,2015-11-05T00:00:00Z,29.1015,-89.9782,0.0,6.964,66.0,,'11111222,11111222,99999999' 
WAVCIS,ioos:station:WAVCIS:CSI09:1,2015-11-05T01:00:00Z,29.1015,-89.9782,0.0,6.904,66.0,,'11111222,11111222,99999999' 
WAVCIS,ioos:station:WAVCIS:CSI09:1,2015-11-05T02:00:00Z,29.1015,-89.9782,0.0,6.608,77.0,,'11111222,11111222,99999999' 
WAVCIS,ioos:station:WAVCIS:CSI09:1,2015-11-05T03:00:00Z,29.1015,-89.9782,0.0,5.791,65.0,,'11111222,11111222,99999999' 
WAVCIS,ioos:station:WAVCIS:CSI09:1,2015-11-05T04:00:00Z,29.1015,-89.9782,0.0,6.105,69.0,,'11111222,11111222,99999999' 
WAVCIS,ioos:station:WAVCIS:CSI09:1,2015-11-05T05:00:00Z,29.1015,-89.9782,0.0,5.479,71.0,,'11111222,11111222,99999999' 
WAVCIS,ioos:station:WAVCIS:CSI09:1,2015-11-05T06:00:00Z,29.1015,-89.9782,0.0,5.946,74.0,,'11111222,11111222,99999999' 
WAVCIS,ioos:station:WAVCIS:CSI09:1,2015-11-05T07:00:00Z,29.1015,-89.9782,0.0,5.215,71.0,,'11111222,11111222,99999999' 
WAVCIS,ioos:station:WAVCIS:CSI09:1,2015-11-05T08:00:00Z,29.1015,-89.9782,0.0,4.809,74.0,,'11111222,11111222,99999999' 
WAVCIS,ioos:station:WAVCIS:CSI09:1,2015-11-05T09:00:00Z,29.1015,-89.9782,0.0,3.646,103.0,,'11111222,11111222,99999999' 
WAVCIS,ioos:station:WAVCIS:CSI09:1,2015-11-05T10:00:00Z,29.1015,-89.9782,0.0,3.932,110.0,,'11111222,11111222,99999999' 
WAVCIS,ioos:station:WAVCIS:CSI09:1,2015-11-05T11:00:00Z,29.1015,-89.9782,0.0,3.886,114.0,,'11111222,11111222,99999999' 
WAVCIS,ioos:station:WAVCIS:CSI09:1,2015-11-05T12:00:00Z,29.1015,-89.9782,0.0,3.549,118.0,,'11111222,11111222,99999999' 
WAVCIS,ioos:station:WAVCIS:CSI09:1,2015-11-05T13:00:00Z,29.1015,-89.9782,0.0,3.347,114.0,,'11111222,11111222,99999999' 
WAVCIS,ioos:station:WAVCIS:CSI09:1,2015-11-05T14:00:00Z,29.1015,-89.9782,0.0,3.674,110.0,,'11111222,11111222,99999999' 
WAVCIS,ioos:station:WAVCIS:CSI09:1,2015-11-05T15:00:00Z,29.1015,-89.9782,0.0,4.722,117.0,,'11111222,11111222,99999999' 
WAVCIS,ioos:station:WAVCIS:CSI09:1,2015-11-05T16:00:00Z,29.1015,-89.9782,0.0,3.62,109.0,,'11111222,11111222,99999999' 
WAVCIS,ioos:station:WAVCIS:CSI09:1,2015-11-05T17:00:00Z,29.1015,-89.9782,0.0,3.807,105.0,,'11111222,11111222,99999999' 
WAVCIS,ioos:station:WAVCIS:CSI09:1,2015-11-05T18:00:00Z,29.1015,-89.9782,0.0,5.224,112.0,,'11111222,11111222,99999999' 
WAVCIS,ioos:station:WAVCIS:CSI09:1,2015-11-05T19:00:00Z,29.1015,-89.9782,0.0,3.871,107.0,,'11111222,11111222,99999999' 
WAVCIS,ioos:station:WAVCIS:CSI09:1,2015-11-05T20:00:00Z,29.1015,-89.9782,0.0,3.728,104.0,,'11111222,11111222,99999999' 
WAVCIS,ioos:station:WAVCIS:CSI09:1,2015-11-05T21:00:00Z,29.1015,-89.9782,0.0,3.876,98.0,,'11111222,11111222,99999999' 
WAVCIS,ioos:station:WAVCIS:CSI09:1,2015-11-05T22:00:00Z,29.1015,-89.9782,0.0,4.043,92.0,,'11111222,11111222,99999999' 
WAVCIS,ioos:station:WAVCIS:CSI09:1,2015-11-05T23:00:00Z,29.1015,-89.9782,0.0,4.208,102.0,,'11111222,11111222,99999999' 
WAVCIS,ioos:station:WAVCIS:CSI09:1,2015-11-06T00:00:00Z,29.1015,-89.9782,0.0,4.205,103.0,,'11111222,11111222,99999999' 
WAVCIS,ioos:station:WAVCIS:CSI09:1,2015-11-06T01:00:00Z,29.1015,-89.9782,0.0,4.578,104.0,,'11111222,11111222,99999999' 
WAVCIS,ioos:station:WAVCIS:CSI09:1,2015-11-06T02:00:00Z,29.1015,-89.9782,0.0,6.252,114.0,,'11111222,11111222,99999999' 
WAVCIS,ioos:station:WAVCIS:CSI09:1,2015-11-06T03:00:00Z,29.1015,-89.9782,0.0,6.156,128.0,,'11111222,11111222,99999999' 
WAVCIS,ioos:station:WAVCIS:CSI09:1,2015-11-06T04:00:00Z,29.1015,-89.9782,0.0,5.82,133.0,,'11111222,11111222,99999999' 
WAVCIS,ioos:station:WAVCIS:CSI09:1,2015-11-06T05:00:00Z,29.1015,-89.9782,0.0,6.056,137.0,,'11111222,11111222,99999999' 
WAVCIS,ioos:station:WAVCIS:CSI09:1,2015-11-06T06:00:00Z,29.1015,-89.9782,0.0,5.606,137.0,,'11111222,11111222,99999999' 
WAVCIS,ioos:station:WAVCIS:CSI09:1,2015-11-06T07:00:00Z,29.1015,-89.9782,0.0,4.775,139.0,,'11111222,11111222,99999999' 
WAVCIS,ioos:station:WAVCIS:CSI09:1,2015-11-06T08:00:00Z,29.1015,-89.9782,0.0,2.827,136.0,,'11111222,11111222,99999999' 
WAVCIS,ioos:station:WAVCIS:CSI09:1,2015-11-06T09:00:00Z,29.1015,-89.9782,0.0,2.934,116.0,,'11111222,11111222,99999999' 
WAVCIS,ioos:station:WAVCIS:CSI09:1,2015-11-06T10:00:00Z,29.1015,-89.9782,0.0,2.577,89.0,,'11111222,11111222,99999999' 
WAVCIS,ioos:station:WAVCIS:CSI09:1,2015-11-06T11:00:00Z,29.1015,-89.9782,0.0,2.887,89.0,,'11111222,11111222,99999999' 
WAVCIS,ioos:station:WAVCIS:CSI09:1,2015-11-06T12:00:00Z,29.1015,-89.9782,0.0,2.944,92.0,,'11111222,11111222,99999999' 
WAVCIS,ioos:station:WAVCIS:CSI09:1,2015-11-06T13:00:00Z,29.1015,-89.9782,0.0,3.669,102.0,,'11111222,11111222,99999999' 
WAVCIS,ioos:station:WAVCIS:CSI09:1,2015-11-06T14:00:00Z,29.1015,-89.9782,0.0,4.398,108.0,,'11111222,11111222,99999999' 
WAVCIS,ioos:station:WAVCIS:CSI09:1,2015-11-06T15:00:00Z,29.1015,-89.9782,0.0,5.727,117.0,,'11111222,11111222,99999999' 
WAVCIS,ioos:station:WAVCIS:CSI09:1,2015-11-06T16:00:00Z,29.1015,-89.9782,0.0,3.408,100.0,,'11111222,11111222,99999999' 
WAVCIS,ioos:station:WAVCIS:CSI09:1,2015-11-06T17:00:00Z,29.1015,-89.9782,0.0,4.237,82.0,,'11111222,11111222,99999999' 
WAVCIS,ioos:station:WAVCIS:CSI09:1,2015-11-06T18:00:00Z,29.1015,-89.9782,0.0,4.413,108.0,,'11111222,11111222,99999999' 
WAVCIS,ioos:station:WAVCIS:CSI09:1,2015-11-06T19:00:00Z,29.1015,-89.9782,0.0,5.548,116.0,,'11111222,11111222,99999999' 
WAVCIS,ioos:station:WAVCIS:CSI09:1,2015-11-06T20:00:00Z,29.1015,-89.9782,0.0,5.653,110.0,,'11111222,11111222,99999999' 
WAVCIS,ioos:station:WAVCIS:CSI09:1,2015-11-06T21:00:00Z,29.1015,-89.9782,0.0,6.232,121.0,,'11111222,11111222,99999999' 
WAVCIS,ioos:station:WAVCIS:CSI09:1,2015-11-06T22:00:00Z,29.1015,-89.9782,0.0,6.648,120.0,,'11111222,11111222,99999999' 
WAVCIS,ioos:station:WAVCIS:CSI09:1,2015-11-06T23:00:00Z,29.1015,-89.9782,0.0,7.12,126.0,,'11111222,11111222,99999999' 
WAVCIS,ioos:station:WAVCIS:CSI09:1,2015-11-07T00:00:00Z,29.1015,-89.9782,0.0,5.754,119.0,,'11111222,11111222,99999999' 
WAVCIS,ioos:station:WAVCIS:CSI09:1,2015-11-07T01:00:00Z,29.1015,-89.9782,0.0,5.391,113.0,,'11111222,11111222,99999999' 
WAVCIS,ioos:station:WAVCIS:CSI09:1,2015-11-07T02:00:00Z,29.1015,-89.9782,0.0,6.099,115.0,,'11111222,11111222,99999999' 
WAVCIS,ioos:station:WAVCIS:CSI09:1,2015-11-07T03:00:00Z,29.1015,-89.9782,0.0,6.789,120.0,,'11111222,11111222,99999999' 
WAVCIS,ioos:station:WAVCIS:CSI09:1,2015-11-07T04:00:00Z,29.1015,-89.9782,0.0,6.013,124.0,,'11111222,11111222,99999999' 
WAVCIS,ioos:station:WAVCIS:CSI09:1,2015-11-07T05:00:00Z,29.1015,-89.9782,0.0,5.436,123.0,,'11111222,11111222,99999999' 
WAVCIS,ioos:station:WAVCIS:CSI09:1,2015-11-07T06:00:00Z,29.1015,-89.9782,0.0,4.696,116.0,,'11111222,11111222,99999999' 
WAVCIS,ioos:station:WAVCIS:CSI09:1,2015-11-07T07:00:00Z,29.1015,-89.9782,0.0,4.276,108.0,,'11111222,11111222,99999999' 
WAVCIS,ioos:station:WAVCIS:CSI09:1,2015-11-07T08:00:00Z,29.1015,-89.9782,0.0,4.097,106.0,,'11111222,11111222,99999999' 
WAVCIS,ioos:station:WAVCIS:CSI09:1,2015-11-07T09:00:00Z,29.1015,-89.9782,0.0,3.092,95.0,,'11111222,11111222,99999999' 
WAVCIS,ioos:station:WAVCIS:CSI09:1,2015-11-07T10:00:00Z,29.1015,-89.9782,0.0,4.082,87.0,,'11111222,11111222,99999999' 
WAVCIS,ioos:station:WAVCIS:CSI09:1,2015-11-07T11:00:00Z,29.1015,-89.9782,0.0,4.824,77.0,,'11111222,11111222,99999999' 
WAVCIS,ioos:station:WAVCIS:CSI09:1,2015-11-07T12:00:00Z,29.1015,-89.9782,0.0,5.043,85.0,,'11111222,11111222,99999999' 
WAVCIS,ioos:station:WAVCIS:CSI09:1,2015-11-07T13:00:00Z,29.1015,-89.9782,0.0,5.886,84.0,,'11111222,11111222,99999999' 
WAVCIS,ioos:station:WAVCIS:CSI09:1,2015-11-07T14:00:00Z,29.1015,-89.9782,0.0,7.17,84.0,,'11111222,11111222,99999999' 
WAVCIS,ioos:station:WAVCIS:CSI09:1,2015-11-07T15:00:00Z,29.1015,-89.9782,0.0,6.86,86.0,,'11111222,11111222,99999999' 
WAVCIS,ioos:station:WAVCIS:CSI09:1,2015-11-07T16:00:00Z,29.1015,-89.9782,0.0,7.09,85.0,,'11111222,11111222,99999999' 
WAVCIS,ioos:station:WAVCIS:CSI09:1,2015-11-07T17:00:00Z,29.1015,-89.9782,0.0,7.69,82.0,,'11111222,11111222,99999999' 
WAVCIS,ioos:station:WAVCIS:CSI09:1,2015-11-07T18:00:00Z,29.1015,-89.9782,0.0,7.27,90.0,,'11111222,11111222,99999999' 
WAVCIS,ioos:station:WAVCIS:CSI09:1,2015-11-07T19:00:00Z,29.1015,-89.9782,0.0,6.59,94.0,,'11111222,11111222,99999999' 
WAVCIS,ioos:station:WAVCIS:CSI09:1,2015-11-07T20:00:00Z,29.1015,-89.9782,0.0,7.12,91.0,,'11111222,11111222,99999999' 
WAVCIS,ioos:station:WAVCIS:CSI09:1,2015-11-07T21:00:00Z,29.1015,-89.9782,0.0,6.467,97.0,,'11111222,11111222,99999999' 
WAVCIS,ioos:station:WAVCIS:CSI09:1,2015-11-07T22:00:00Z,29.1015,-89.9782,0.0,9.23,134.0,,'11111222,11111222,99999999' 
WAVCIS,ioos:station:WAVCIS:CSI09:1,2015-11-07T23:00:00Z,29.1015,-89.9782,0.0,8.13,131.0,,'11111222,11111222,99999999' 
WAVCIS,ioos:station:WAVCIS:CSI09:1,2015-11-08T00:00:00Z,29.1015,-89.9782,0.0,7.01,97.0,,'11111222,11111222,99999999' 
WAVCIS,ioos:station:WAVCIS:CSI09:1,2015-11-08T01:00:00Z,29.1015,-89.9782,0.0,6.762,97.0,,'11111222,11111222,99999999' 
WAVCIS,ioos:station:WAVCIS:CSI09:1,2015-11-08T02:00:00Z,29.1015,-89.9782,0.0,7.14,81.0,,'11111222,11111222,99999999' 
WAVCIS,ioos:station:WAVCIS:CSI09:1,2015-11-08T03:00:00Z,29.1015,-89.9782,0.0,12.61,21.0,,'11111222,11111222,99999999' 
WAVCIS,ioos:station:WAVCIS:CSI09:1,2015-11-08T04:00:00Z,29.1015,-89.9782,0.0,17.69,19.0,,'11111222,11111222,99999999' 
WAVCIS,ioos:station:WAVCIS:CSI09:1,2015-11-08T05:00:00Z,29.1015,-89.9782,0.0,17.38,18.0,,'11111222,11111222,99999999' 
WAVCIS,ioos:station:WAVCIS:CSI09:1,2015-11-08T06:00:00Z,29.1015,-89.9782,0.0,17.49,13.0,,'11111222,11111222,99999999' 
WAVCIS,ioos:station:WAVCIS:CSI09:1,2015-11-08T07:00:00Z,29.1015,-89.9782,0.0,18.11,14.0,,'11111222,11111222,99999999' 
WAVCIS,ioos:station:WAVCIS:CSI09:1,2015-11-08T08:00:00Z,29.1015,-89.9782,0.0,17.49,29.0,,'11111222,11111222,99999999' 
WAVCIS,ioos:station:WAVCIS:CSI09:1,2015-11-08T09:00:00Z,29.1015,-89.9782,0.0,18.7,45.0,,'11111222,11111222,99999999' 
WAVCIS,ioos:station:WAVCIS:CSI09:1,2015-11-08T10:00:00Z,29.1015,-89.9782,0.0,18.01,47.0,,'11111222,11111222,99999999' 
WAVCIS,ioos:station:WAVCIS:CSI09:1,2015-11-08T11:00:00Z,29.1015,-89.9782,0.0,16.06,43.0,,'11111222,11111222,99999999' 
WAVCIS,ioos:station:WAVCIS:CSI09:1,2015-11-08T12:00:00Z,29.1015,-89.9782,0.0,14.92,33.0,,'11111222,11111222,99999999' 
WAVCIS,ioos:station:WAVCIS:CSI09:1,2015-11-08T13:00:00Z,29.1015,-89.9782,0.0,15.5,32.0,,'11111222,11111222,99999999' 
WAVCIS,ioos:station:WAVCIS:CSI09:1,2015-11-08T14:00:00Z,29.1015,-89.9782,0.0,16.26,18.0,,'11111222,11111222,99999999' 
WAVCIS,ioos:station:WAVCIS:CSI09:1,2015-11-08T15:00:00Z,29.1015,-89.9782,0.0,15.54,11.0,,'11111222,11111222,99999999' 
WAVCIS,ioos:station:WAVCIS:CSI09:1,2015-11-08T16:00:00Z,29.1015,-89.9782,0.0,15.42,10.0,,'11111222,11111222,99999999' 
WAVCIS,ioos:station:WAVCIS:CSI09:1,2015-11-08T17:00:00Z,29.1015,-89.9782,0.0,15.11,11.0,,'11111222,11111222,99999999' 
WAVCIS,ioos:station:WAVCIS:CSI09:1,2015-11-08T18:00:00Z,29.1015,-89.9782,0.0,14.94,17.0,,'11111222,11111222,99999999' 
WAVCIS,ioos:station:WAVCIS:CSI09:1,2015-11-08T19:00:00Z,29.1015,-89.9782,0.0,14.48,3.0,,'11111222,11111222,99999999' 
WAVCIS,ioos:station:WAVCIS:CSI09:1,2015-11-08T20:00:00Z,29.1015,-89.9782,0.0,14.09,6.0,,'11111222,11111222,99999999' 
WAVCIS,ioos:station:WAVCIS:CSI09:1,2015-11-08T21:00:00Z,29.1015,-89.9782,0.0,13.94,8.0,,'11111222,11111222,99999999' 
WAVCIS,ioos:station:WAVCIS:CSI09:1,2015-11-08T22:00:00Z,29.1015,-89.9782,0.0,13.77,8.0,,'11111222,11111222,99999999' 
WAVCIS,ioos:station:WAVCIS:CSI09:1,2015-11-08T23:00:00Z,29.1015,-89.9782,0.0,13.85,6.0,,'11111222,11111222,99999999' 
WAVCIS,ioos:station:WAVCIS:CSI09:1,2015-11-09T00:00:00Z,29.1015,-89.9782,0.0,13.35,5.0,,'11111222,11111222,99999999' 
WAVCIS,ioos:station:WAVCIS:CSI09:1,2015-11-09T01:00:00Z,29.1015,-89.9782,0.0,14.14,356.0,,'11111222,11111222,99999999' 
WAVCIS,ioos:station:WAVCIS:CSI09:1,2015-11-09T02:00:00Z,29.1015,-89.9782,0.0,14.0,13.0,,'11111222,11111222,99999999' 
WAVCIS,ioos:station:WAVCIS:CSI09:1,2015-11-09T03:00:00Z,29.1015,-89.9782,0.0,13.97,10.0,,'11111222,11111222,99999999' 
WAVCIS,ioos:station:WAVCIS:CSI09:1,2015-11-09T04:00:00Z,29.1015,-89.9782,0.0,13.09,12.0,,'11111222,11111222,99999999' 
WAVCIS,ioos:station:WAVCIS:CSI09:1,2015-11-09T05:00:00Z,29.1015,-89.9782,0.0,12.53,14.0,,'11111222,11111222,99999999' 
WAVCIS,ioos:station:WAVCIS:CSI09:1,2015-11-09T06:00:00Z,29.1015,-89.9782,0.0,10.94,8.0,,'11111222,11111222,99999999' 
WAVCIS,ioos:station:WAVCIS:CSI09:1,2015-11-09T07:00:00Z,29.1015,-89.9782,0.0,9.82,16.0,,'11111222,11111222,99999999' 